Hourly Data Report for February 25, 2002

SHERBROOKE A
QUEBEC

45°26'00.000" N
71°41'00.000" W
241.40 m
7028124
71610
YSC

Download Data

Hourly Data (February 2002)
Hourly Data Report for February 25, 2002
TIME
LST
Temp Definition
°C
Dew Point Definition
°C
Rel Hum Definition
%
Precip. Amount Definition
mm

Wind Dir Definition
10's deg

Wind Spd Definition
km/h
Visibility Definition
km
Stn Press Definition
kPa
Hmdx Definition


Wind Chill Definition


Weather Definition


00:00 -0.8 -6.1 67   12 4 15.0 99.17   -2  
01:00 -0.8 -4.5 76     0 15.0 99.18      
02:00 -0.7 -4.8 74   8 4 15.0 99.16   -2  
03:00 -2.0 -5.5 77   8 4 15.0 99.12   -3  
04:00 -2.3 -5.8 77   8 6 15.0 99.06   -5  
05:00 -1.9 -5.2 78   8 6 15.0 99.07   -4  
06:00 -0.9 -6.4 66   8 7 15.0 99.06   -3  
07:00 -0.7 -6.7 64   8 4 15.0 99.06   -2  
08:00 -0.6 -6.3 65   5 9 24.1 99.07   -4 Cloudy
09:00 0.0 -6.5 62   6 13 24.1 98.99   -4 Cloudy
10:00 1.5 -6.1 57   5 6 24.1 98.84     Cloudy
11:00 4.2 -6.2 47   5 6 24.1 98.74     Cloudy
12:00 7.2 -6.4 37   14 4 24.1 98.63     Mostly Cloudy
13:00 8.7 -9.0 28   18 7 24.1 98.53     Cloudy
14:00 9.1 -8.9 27   19 9 24.1 98.44     Cloudy
15:00 8.8 -8.3 29   17 9 24.1 98.34     Mostly Cloudy
16:00 8.0 -8.0 31   17 11 24.1 98.29     Cloudy
17:00 7.7 -7.7 33   18 11 24.1 98.29     Cloudy
18:00 6.8 -6.7 37   15 9 15.0 98.27      
19:00 4.8 -5.1 49   14 6 15.0 98.33      
20:00 3.7 -3.6 59   14 6 15.0 98.35      
21:00 4.2 -4.5 53   10 7 15.0 98.35      
22:00 2.7 -3.0 66   7 4 15.0 98.33      
23:00 3.1 -3.5 62   8 4 15.0 98.31      

Notes on Data Quality.

Legend

  • E = Estimated
  • M = Missing
  • NA = Not Available*
  • [empty] = Indicates an unobserved value
Date modified: